www.pogodaiklimat.ru

Погода и климат >> Архив погоды >> Антарктида >> Syowa


ПОГОДА в Syowa

  • Прогноз погоды в Syowa
  • Монитор погоды в Syowa
  • Климат города

АРХИВ ПОГОДЫ в Syowa

Время (UTC), дата Ветер
(напр.,м/с)
 
Видим.   Явления Облачность Т
(С)
Тd
(С)
f
(%)
Тe
(С)
Тes
(С)
Комфортность P
(гПа)
Po
(гПа)
Тmin
(С)
Tmax
(С)
R
(мм)
R24
(мм)
S
(см)
03 19.09 СВ 14 300 м снег {метель} 10/10
[Sc]
-13.4 -14.9 88 -27 -27 989.2 986.4
06 19.09 СВ 11 2000 м слабый снег {метель} 9/9
[Sc]
-10.4 -11.6 91 -22 -22 989.9 987.1
09 19.09 В 15 200 м снег 9/9
[Sc]
-9.1 -10.3 91 -22 -22 987.9 985.1
12 19.09 СВ 20 <100 м сильный снег ?/? -7.5 -8.4 93 -21 -21 984.8 982.1 -14.2 -7.5
15 19.09 СВ 24 <100 м сильный снег {метель} ?/? -7.0 -7.9 93 -21 -21 983.6 980.9
18 19.09 СВ 22 100 м сильный снег {метель} ?/? -6.8 -7.6 94 -20 -20 982.8 980.1
21 19.09 СВ 24 <100 м сильный снег {метель} ?/? -6.7 -7.5 94 -21 -21 980.4 977.7
00 20.09 СВ 19 100 м сильный снег {метель} ?/? -6.4 -7.2 94 -19 -19 978.9 976.2 -7.5 -6.4
03 20.09 СВ 21 <100 м сильный снег {метель} ?/? -6.1 -6.9 94 -19 -19 975.1 972.4
06 20.09 СВ 31 <100 м сильный снег {метель} ?/? -5.3 -6.0 95 -20 -20 971.6 968.9
09 20.09 СВ 25 <100 м сильный снег {метель} ?/? -5.0 -5.7 95 -19 -19 973.6 970.9
12 20.09 СВ 25 <100 м сильный снег {метель} ?/? -4.9 -5.4 96 -18 -18 974.4 971.7 -6.4 -4.9
15 20.09 СВ 20 100 м сильный снег {метель} ?/? -5.1 -5.8 95 -18 -18 974.8 972.1
18 20.09 СВ 16 500 м снег {метель} ?/? -4.7 -5.2 96 -16 -16 975.3 972.6
21 20.09 СВ 17 500 м снег {метель} 9/9
[Sc Ac As]
-4.4 -4.9 96 -16 -16 975.8 973.1
00 21.09 СВ 3 20 км слабый снег {метель} 10/10
[Sc]
-5.0 -5.7 95 -10 -10 976.6 973.9 -5.1 -4.4
03 21.09 СВ 8 20 км слабый снег 9/9
[Sc]
-5.1 -5.9 94 -14 -14 976.2 973.5
06 21.09 В 15 5000 м слабый снег 9/9
[Sc]
-5.9 -6.7 94 -18 -18 975.2 972.5
09 21.09 СВ 13 3000 м слабый снег {метель} 9/9
[Sc]
-5.9 -6.8 93 -17 -17 974.6 971.9
12 21.09 СВ 17 <100 м сильный снег {метель} ?/? -7.0 -7.9 93 -20 -20 975.0 972.3 -7.0 -4.9
15 21.09 СВ 18 20 км {снег, метель} 8/8
[Sc Ac As]
-7.9 -9.6 88 -17 -17 977.7 975.0
18 21.09 СВ 17 3000 м {снег, метель} 8/4
[Sc Ac As]
-7.6 -10.4 80 -20 -20 977.3 974.6
21 21.09 СВ 15 500 м метель {снег} 8/3
[Sc Ac As Ci sp]
-8.5 -10.1 88 -21 -21 977.3 974.6
00 22.09 В 13 10 км метель {снег} 9/3
[Sc Ac As Ci sp]
-9.1 -12.7 75 -21 -21 979.9 977.2 -9.1 -7.0
03 22.09 В 17 8000 м 9/3
[Sc Ac As Ci sp]
-9.8 -12.4 81 -23 -23 978.6 975.8
06 22.09 В 13 15 км метель 9/3
[Sc Ac As]
-9.6 -14.0 70 -21 -21 979.0 976.2
09 22.09 В 14 15 км метель 9/3
[Sc Ac As]
-9.3 -13.9 69 -21 -21 979.0 976.3
12 22.09 В 11 20 км метель 9/1
[Sc Ac As]
-9.3 -16.0 58 -20 -20 980.2 977.4 -10.0 -8.5
15 22.09 В 11 20 км 9/0
[Ac As Ci sp]
-11.6 -18.7 56 -23 -23 980.7 977.9
18 22.09 В 12 10 км метель 9/0
[Ac As Ci sp]
-13.5 -20.4 56 -26 -26 981.9 979.1
21 22.09 В 14 5000 м метель 9/0
[Ci sp]
-14.2 -21.7 53 -28 -28 982.6 979.8
00 23.09 В 12 5000 м метель 9/0
[Ci sp]
-14.9 -21.9 55 -28 -28 983.5 980.7 -15.8 -8.8
03 23.09 В 9 30 км 1/1
[Sc Ci fib]
-17.2 -24.7 52 -29 -29 985.2 982.3
06 23.09 СВ 8 30 км 1/0
[Ac trans Ci sp]
-16.0 -23.6 52 -27 -27 986.2 983.4
09 23.09 СВ 5 30 км 1/0
[Ac trans Ci sp]
-15.5 -22.5 55 -25 -23 986.8 984.0
12 23.09 СВ 3 30 км 5/5
[Sc Ac trans Ci sp]
-16.2 -22.2 60 -22 -21 987.2 984.4 -17.5 -14.8
15 23.09 СВ 2 30 км 4/4
[Sc Ci sp]
-18.1 -23.1 65 -23 -22 987.7 984.8
18 23.09 СВ 3 30 км 9/6
[Sc Ac As]
-18.1 -24.5 57 -25 -25 988.1 985.2
21 23.09 В 6 20 км 8/1
[Sc Ac As]
-19.5 -26.2 55 -30 -30 988.3 985.4
00 24.09 СВ 2 20 км 8/0
[Ac As]
-22.0 -27.5 61 -28 -28 988.7 985.8 -22.2 -16.2
03 24.09 ЮВ 1 30 км 9/0
[Ac As]
-19.6 -25.8 58 -20 -20 988.4 985.5
06 24.09 С 1 30 км 9/0
[Ac As]
-18.3 -26.4 49 -19 -18 987.4 984.5
09 24.09 СВ 1 30 км 3/0
[Ac As Ci sp]
-16.3 -25.2 46 -17 -13 986.8 984.0
12 24.09 Ю 2 30 км 1/0
[Ac As Ci sp]
-17.5 -25.2 51 -23 -21 985.8 982.9 -22.0 -16.1
15 24.09 В 1 30 км 1/0
[Ac As]
-19.6 -25.4 60 -23 -23 984.6 981.7
18 24.09 В 2 30 км 1/0
[Ac As]
-21.6 -29.9 47 -27 -27 983.4 980.5
21 24.09 СВ 2 30 км 1/0
[Ci fib]
-22.7 -30.9 47 -29 -29 983.2 980.3
00 25.09 СВ 5 30 км 1/0
[Ci fib]
-22.8 -30.8 48 -33 -33 опасность
обморожения
982.8 979.9 -23.2 -17.2
03 25.09 З 1 30 км 1/0
[Ac trans]
-21.8 -30.1 47 -25 -25 982.9 980.0
06 25.09 СВ 5 30 км ясно -21.1 -30.1 44 -31 -30 опасность
обморожения
983.1 980.2
09 25.09 Ю 2 30 км 1/0
[Ac As]
-18.4 -27.7 44 -23 -19 983.7 980.8
12 25.09 Ю 4 30 км 1/0
[Ac As]
-18.0 -26.8 46 -27 -25 984.0 981.1 -23.8 -17.4
15 25.09 В 2 30 км ясно -19.6 -26.3 55 -24 -24 983.8 980.9
18 25.09 В 3 30 км ясно -22.3 -29.5 52 -31 -31 опасность
обморожения
984.2 981.3
21 25.09 В 2 30 км 1/0
[Ac trans]
-21.8 -29.9 48 -28 -28 985.1 982.2
00 26.09 СВ 1 30 км 1/0
[Ac trans]
-22.7 -30.6 48 -24 -24 985.7 982.8 -23.3 -17.7

 

Местоположение метеостанции Syowa (Антарктида): широта -69.00 долгота 39.58 высота над уровнем моря 21 м.

В архиве по умолчанию представлена погода в Syowa за последнюю неделю. Архивные данные за месяц целиком и за предыдущие месяцы, начиная с января 2011 года, Вы можете получить, выбрав интересующий диапазон дат из раскрывающегося списка и нажав кнопку "Ввод!".


*Определитесь, кто Вы:
робот инопланетянин человек

Внимание! Время в таблицах - всемирное. Для получения местного времени необходимо прибавить поправку, которая в Syowa равна 0 ч.

Смотрите также архив погоды в соседних городах и на ближайших метеорологических станциях:

Погода в Molodezhnaya (Антарктида) (297 км)
Погода в Relay Station (Антарктида) (570 км)

Пояснения к столбцам:

Ветер - указаны скорость ветра в м/с - средняя за 10 мин, порывы в срок и между сроками (в фигурных скобках) и направление, откуда дует ветер: С - северный, СВ - северо-восточный, В - восточный, ЮВ - юго-восточный, Ю - южный, ЮЗ - юго-западный, З - западный, СЗ - северо-западный.
Видимость - горизонтальная дальность видимости в метрах или километрах. При видимости от 1 до 10 км при отсутствии осадков обычно наблюдается дымка, при ухудшении видимости до 1 км и менее - туман. В сухую погоду видимость может ухудшаться дымом, пылью или мглою.
Явления - указаны атмосферные явления, наблюдавшиеся в срок или в последний час перед сроком; фигурными скобками обозначены явления, наблюдавшиеся между сроками (за 1-3 часа до срока); квадратными скобками обозначены град или гололедные отложения с указанием их диаметра в мм.
Облачность - указаны через наклонную черту общая и нижняя облачность в баллах и высота нижней границы облаков в метрах; квадратными скобками обозначены формы облаков: Ci - перистые, Cs - перисто-слоистые, Cc - перисто-кучевые, Ac - высококучевые, As - высокослоистые, Sc - слоисто-кучевые, Ns - слоисто-дождевые, Cu - кучевые, Cb - кучево-дождевые. Подробнее классификацию облаков см. в Атласе облаков (PDF).
T - Температура воздуха - температура, измеренная на высоте 2 м над землей.
Td - Температура точки росы - температура, при понижении до которой содержащийся в воздухе водяной пар достигнет насыщения.
f - Относительная влажность воздуха - влажноcть воздуха, измеренная на высоте 2 м над землей.
Te - Эффективная температура - температура, которую ощущает одетый по сезону человек в тени. Характеристика душности погоды. При расчете учитывается влияние влажности воздуха и скорости ветра на теплоощущения человека.
Tes - Эффективная температура на солнце - температура, которую ощущает человек, с поправкой на солнечный нагрев. Характеристика знойности погоды. Зависит от высоты солнца над горизонтом, облачности и скорости ветра. Ночью, в пасмурную погоду, а также при ветре 12 м/с и более поправка равна нулю.
P - Атмосферное давление - приведенное к уровню моря атмосферное давление.
Po - Атмосферное давление - измеренное на уровне метеостанции атмосферное давление.
Tmin - Минимальная температура - минимум температуры воздуха на высоте 2 м над землей.
Tmax - Максимальная температура - максимум температуры воздуха на высоте 2 м над землей.
R - Количество осадков - Количество выпавших осадков за период времени, мм. При наведении курсора мыши на число - период времени, за который выпало указанное количество осадков.
R24 - Количество осадков - Количество выпавших осадков за 24 часа, мм.
S - Снежный покров - Высота снежного покрова, см. При наведении курсора мыши на число - состояние снежного покрова и степень покрытия местности в баллах.